This is the latest recevied weather packets stored in our database for station/object 4S6DRJ-13. If no packets are shown the sender has not sent any weather packets the latest 10 day(s).
| Time | Temp. | Humidity | Pressure | Rain* | Wind** | Luminosity | Snow |
|---|---|---|---|---|---|---|---|
| 1788361295 | 27.78° C | 85% | 1010.2 hPa | 0 mm | 0.45 m/s, 233° | 0 W/m² | - |
| 1788361233 | 27.78° C | 85% | 1010.3 hPa | 0 mm | 0 m/s | 0 W/m² | - |
| 1788361173 | 27.78° C | 85% | 1010.4 hPa | 0 mm | 0.89 m/s, 217° | 0 W/m² | - |
| 1788361111 | 27.78° C | 85% | 1010.3 hPa | 0 mm | 0.45 m/s, 219° | 0 W/m² | - |
| 1788361050 | 27.78° C | 85% | 1010.2 hPa | 0 mm | 0.45 m/s, 241° | 0 W/m² | - |
| 1788360989 | 27.78° C | 85% | 1010.2 hPa | 0 mm | 0.89 m/s, 242° | 0 W/m² | - |
| 1788360928 | 28.33° C | 85% | 1010.2 hPa | 0 mm | 0.45 m/s, 168° | 0 W/m² | - |
| 1788360867 | 28.33° C | 85% | 1010.3 hPa | 0 mm | 0.45 m/s, 238° | 0 W/m² | - |
| 1788360806 | 28.33° C | 85% | 1010.1 hPa | 0 mm | 0.89 m/s, 88° | 0 W/m² | - |
| 1788360745 | 28.33° C | 85% | 1010.1 hPa | 0 mm | 0.45 m/s, 198° | 0 W/m² | - |
| 1788360684 | 28.33° C | 85% | 1010.3 hPa | 0 mm | 0.89 m/s, 200° | 0 W/m² | - |
| 1788360623 | 27.78° C | 85% | 1010.1 hPa | 0 mm | 0.45 m/s, 228° | 0 W/m² | - |
| 1788360563 | 27.78° C | 85% | 1010.2 hPa | 0 mm | 0.89 m/s, 294° | 0 W/m² | - |
| 1788360501 | 27.78° C | 85% | 1010.2 hPa | 0 mm | 1.79 m/s, 241° | 0 W/m² | - |
| 1788360440 | 27.78° C | 85% | 1010.2 hPa | 0 mm | 1.79 m/s, 244° | 0 W/m² | - |
| 1788360379 | 27.78° C | 85% | 1010.2 hPa | 0 mm | 1.79 m/s, 228° | 0 W/m² | - |
| 1788360318 | 27.78° C | 85% | 1010.1 hPa | 0 mm | 0.45 m/s, 221° | 0 W/m² | - |
| 1788360257 | 27.78° C | 85% | 1010.2 hPa | 0 mm | 0.89 m/s, 213° | 0 W/m² | - |
| 1788360196 | 27.78° C | 85% | 1010.2 hPa | 0 mm | 0.89 m/s, 242° | 0 W/m² | - |
| 1788360135 | 27.78° C | 85% | 1010.2 hPa | 0 mm | 0.89 m/s, 222° | 0 W/m² | - |
| 1788360074 | 27.78° C | 86% | 1010.1 hPa | 0 mm | 0 m/s | 0 W/m² | - |
| 1788360013 | 27.78° C | 86% | 1010.1 hPa | 0 mm | 1.34 m/s, 207° | 0 W/m² | - |
| 1788359952 | 27.78° C | 86% | 1010.2 hPa | 0 mm | 0.45 m/s, 207° | 0 W/m² | - |
| 1788359891 | 27.78° C | 86% | 1010 hPa | 0 mm | 0.89 m/s, 232° | 0 W/m² | - |
| 1788359830 | 27.78° C | 86% | 1010 hPa | 0 mm | 1.34 m/s, 249° | 0 W/m² | - |
* Rain latest hour (hover to see other rain measurements)
** Current wind speed in m/s (hover to see current wind gust speed)